When you browse on this site, cookies collect data to enhance your experience and personalize the content and advertising you see.
Visit our Privacy Policy to learn more. By continuing to use the site, you agree to this use of cookies and data.
  • In Czech Republic
  • List of Countries
  • For 7 days
  • Water Temperature
  • Weather Map
  • Weather Widgets
  • user-avatar
    Login

    Hourly Weather Rostock

    Today, 14 December, Saturday

    Time Temperature Precipitation Wind Pressure Humidity
    00:00 -1°C° 0 mm 3 mps 736 mmHg 92%
    01:00 0°C° 0 mm 3 mps 736 mmHg 91%
    02:00 -1°C° 0.1 mm 4 mps 736 mmHg 93%
    03:00 -1°C° 0.1 mm 4 mps 735 mmHg 95%
    04:00 -1°C° 0.1 mm 4 mps 735 mmHg 96%
    05:00 0°C° 0.4 mm 4 mps 735 mmHg 96%
    06:00 0°C° 0.4 mm 5 mps 735 mmHg 96%
    07:00 +1°C° 0 mm 4 mps 735 mmHg 95%
    08:00 +1°C° 0 mm 5 mps 735 mmHg 93%
    09:00 +1°C° 0 mm 5 mps 735 mmHg 91%
    10:00 +2°C° 0 mm 6 mps 735 mmHg 89%
    11:00 +2°C° 0.3 mm 6 mps 736 mmHg 91%
    12:00 +2°C° 0.3 mm 6 mps 736 mmHg 93%
    13:00 +1°C° 0 mm 6 mps 737 mmHg 95%
    14:00 +2°C° 0.5 mm 6 mps 737 mmHg 92%
    15:00 +2°C° 0.5 mm 7 mps 738 mmHg 89%
    16:00 +2°C° 0.5 mm 7 mps 738 mmHg 86%
    17:00 +1°C° 0 mm 8 mps 739 mmHg 84%
    18:00 +1°C° 0 mm 8 mps 739 mmHg 83%
    19:00 +1°C° 0 mm 9 mps 740 mmHg 82%
    20:00 +1°C° 0 mm 9 mps 740 mmHg 83%
    21:00 +1°C° 0 mm 9 mps 741 mmHg 84%
    22:00 +1°C° 0 mm 9 mps 742 mmHg 85%
    23:00 +1°C° 0 mm 9 mps 742 mmHg 84%

    Tomorrow, 15 December, Sunday

    Time Temperature Precipitation Wind Pressure Humidity
    00:00 +1°C° 0 mm 9 mps 743 mmHg 84%
    01:00 +1°C° 0 mm 10 mps 744 mmHg 84%
    02:00 0°C° 0 mm 9 mps 744 mmHg 83%
    03:00 0°C° 0 mm 7 mps 745 mmHg 83%
    04:00 -1°C° 0 mm 6 mps 745 mmHg 82%
    05:00 -1°C° 0 mm 7 mps 745 mmHg 83%
    06:00 -1°C° 0 mm 7 mps 744 mmHg 83%
    07:00 -1°C° 0 mm 7 mps 744 mmHg 84%
    08:00 0°C° 0.3 mm 8 mps 744 mmHg 86%
    09:00 0°C° 0.3 mm 9 mps 743 mmHg 88%
    10:00 +1°C° 0.3 mm 10 mps 742 mmHg 89%
    11:00 +2°C° 0.1 mm 10 mps 743 mmHg 81%
    12:00 +3°C° 0.1 mm 11 mps 743 mmHg 73%
    13:00 +4°C° 0.1 mm 11 mps 743 mmHg 64%
    14:00 +3°C° 0 mm 11 mps 744 mmHg 66%
    15:00 +3°C° 0 mm 11 mps 745 mmHg 67%
    16:00 +2°C° 0 mm 11 mps 746 mmHg 68%
    17:00 +2°C° 0 mm 11 mps 747 mmHg 70%
    18:00 +2°C° 0 mm 11 mps 747 mmHg 72%
    19:00 +2°C° 0 mm 11 mps 748 mmHg 74%
    20:00 +2°C° 0 mm 10 mps 749 mmHg 77%
    21:00 +2°C° 0 mm 9 mps 750 mmHg 80%
    22:00 +2°C° 0 mm 8 mps 752 mmHg 83%
    23:00 +3°C° 0 mm 7 mps 752 mmHg 84%

    Day after tomorrow, 16 December, Monday

    Time Temperature Precipitation Wind Pressure Humidity
    00:00 +2°C° 0 mm 7 mps 753 mmHg 85%
    01:00 +2°C° 0 mm 7 mps 753 mmHg 85%
    02:00 +2°C° 0 mm 6 mps 754 mmHg 86%
    03:00 +2°C° 0 mm 6 mps 754 mmHg 87%
    04:00 +1°C° 0 mm 6 mps 754 mmHg 87%
    05:00 +1°C° 0 mm 6 mps 754 mmHg 87%
    06:00 +1°C° 0 mm 5 mps 754 mmHg 86%
    07:00 +1°C° 0 mm 5 mps 754 mmHg 86%
    08:00 +1°C° 0 mm 5 mps 754 mmHg 84%
    09:00 +2°C° 0 mm 5 mps 754 mmHg 83%
    10:00 +2°C° 0 mm 5 mps 754 mmHg 82%
    11:00 +3°C° 0 mm 5 mps 754 mmHg 82%
    12:00 +4°C° 0 mm 6 mps 754 mmHg 82%
    13:00 +5°C° 0 mm 6 mps 754 mmHg 83%
    14:00 +5°C° 0 mm 6 mps 753 mmHg 86%
    15:00 +6°C° 0 mm 5 mps 753 mmHg 90%
    16:00 +6°C° 0 mm 5 mps 753 mmHg 93%
    17:00 +6°C° 0 mm 5 mps 753 mmHg 94%
    18:00 +6°C° 0 mm 5 mps 753 mmHg 95%
    19:00 +5°C° 0 mm 4 mps 753 mmHg 96%
    20:00 +5°C° 0 mm 4 mps 753 mmHg 96%
    21:00 +5°C° 0 mm 3 mps 753 mmHg 95%
    22:00 +7°C° 0 mm 3 mps 753 mmHg 95%
    23:00 +5°C° 0.4 mm 3 mps 753 mmHg 94%

    17 December, Tuesday

    Time Temperature Precipitation Wind Pressure Humidity
    00:00 +6°C° 0.4 mm 2 mps 752 mmHg 94%
    01:00 +6°C° 0.4 mm 2 mps 752 mmHg 93%
    02:00 +5°C° 0 mm 3 mps 752 mmHg 92%
    03:00 +5°C° 0 mm 3 mps 752 mmHg 91%
    04:00 +5°C° 0 mm 3 mps 752 mmHg 90%
    05:00 +5°C° 0 mm 3 mps 752 mmHg 89%
    06:00 +5°C° 0 mm 3 mps 752 mmHg 87%
    07:00 +5°C° 0 mm 4 mps 751 mmHg 85%
    08:00 +5°C° 0 mm 4 mps 751 mmHg 83%
    09:00 +6°C° 0 mm 4 mps 751 mmHg 81%
    10:00 +6°C° 0 mm 4 mps 751 mmHg 79%
    11:00 +7°C° 0 mm 5 mps 751 mmHg 76%
    12:00 +8°C° 0 mm 5 mps 751 mmHg 73%
    13:00 +9°C° 0 mm 6 mps 751 mmHg 70%
    14:00 +9°C° 0 mm 6 mps 752 mmHg 73%
    15:00 +8°C° 0 mm 5 mps 752 mmHg 77%
    16:00 +7°C° 0 mm 5 mps 752 mmHg 81%
    17:00 +7°C° 0 mm 5 mps 752 mmHg 82%
    18:00 +7°C° 0 mm 5 mps 752 mmHg 83%
    19:00 +7°C° 0 mm 4 mps 753 mmHg 84%
    20:00 +7°C° 0 mm 4 mps 753 mmHg 85%
    21:00 +6°C° 0 mm 4 mps 753 mmHg 86%
    22:00 +6°C° 0 mm 4 mps 753 mmHg 87%
    23:00 +6°C° 0 mm 4 mps 753 mmHg 87%

    18 December, Wednesday

    Time Temperature Precipitation Wind Pressure Humidity
    00:00 +7°C° 0 mm 5 mps 753 mmHg 86%
    01:00 +7°C° 0 mm 5 mps 753 mmHg 85%
    02:00 +7°C° 0 mm 5 mps 753 mmHg 84%
    03:00 +7°C° 0 mm 5 mps 753 mmHg 83%
    04:00 +7°C° 0 mm 5 mps 753 mmHg 81%
    05:00 +7°C° 0 mm 5 mps 753 mmHg 82%
    06:00 +6°C° 0 mm 5 mps 753 mmHg 83%
    07:00 +6°C° 0 mm 5 mps 753 mmHg 84%
    08:00 +6°C° 0 mm 5 mps 754 mmHg 83%
    09:00 +7°C° 0 mm 5 mps 755 mmHg 83%
    10:00 +7°C° 0 mm 5 mps 756 mmHg 83%
    11:00 +7°C° 0 mm 5 mps 756 mmHg 85%
    12:00 +7°C° 0 mm 5 mps 757 mmHg 87%
    13:00 +7°C° 0 mm 4 mps 757 mmHg 89%
    14:00 +6°C° 0 mm 4 mps 758 mmHg 90%
    15:00 +5°C° 0 mm 3 mps 758 mmHg 91%
    16:00 +5°C° 0 mm 2 mps 758 mmHg 92%
    17:00 +5°C° 0 mm 2 mps 759 mmHg 92%
    18:00 +6°C° 0 mm 1 mps 759 mmHg 91%
    19:00 +6°C° 0 mm 1 mps 759 mmHg 90%
    20:00 +6°C° 0 mm 1 mps 759 mmHg 90%
    21:00 +6°C° 0 mm 1 mps 760 mmHg 91%
    22:00 +6°C° 0 mm 1 mps 760 mmHg 91%
    23:00 +6°C° 0.1 mm 1 mps 760 mmHg 92%

    19 December, Thursday

    Time Temperature Precipitation Wind Pressure Humidity
    00:00 +5°C° 0.1 mm 2 mps 760 mmHg 93%
    01:00 +5°C° 0.1 mm 2 mps 759 mmHg 94%
    02:00 +5°C° 0.3 mm 2 mps 759 mmHg 95%
    03:00 +4°C° 0.3 mm 3 mps 759 mmHg 95%
    04:00 +4°C° 0.3 mm 3 mps 759 mmHg 95%
    05:00 +4°C° 0.1 mm 4 mps 759 mmHg 94%
    06:00 +5°C° 0.1 mm 4 mps 759 mmHg 94%
    07:00 +5°C° 0.1 mm 4 mps 759 mmHg 93%
    08:00 +5°C° 0 mm 4 mps 759 mmHg 93%
    09:00 +5°C° 0 mm 4 mps 759 mmHg 93%
    10:00 +5°C° 0 mm 4 mps 759 mmHg 92%
    11:00 +5°C° 0 mm 4 mps 759 mmHg 92%
    12:00 +5°C° 0 mm 4 mps 759 mmHg 92%
    13:00 +6°C° 0 mm 5 mps 758 mmHg 91%
    14:00 +6°C° 0 mm 5 mps 758 mmHg 92%
    15:00 +6°C° 0 mm 5 mps 758 mmHg 92%
    16:00 +6°C° 0 mm 5 mps 757 mmHg 93%
    17:00 +5°C° 0 mm 6 mps 757 mmHg 93%
    18:00 +4°C° 0 mm 6 mps 757 mmHg 94%
    19:00 +4°C° 0 mm 6 mps 757 mmHg 94%
    20:00 +4°C° 0 mm 6 mps 757 mmHg 94%
    21:00 +4°C° 0 mm 6 mps 757 mmHg 94%
    22:00 +4°C° 0 mm 6 mps 757 mmHg 93%
    23:00 +4°C° 0 mm 6 mps 756 mmHg 93%
    Show more